LVCPZ SAAR-SAAR

Flight info

Callsign LVCPZ
Flight time 0h 41m
Altitude 8000
Route ROS
Aircraft C182/L-SDG/C

Departure

Time 2026-05-08 22:19
Airport Rosario Islas Malvinas International Airport (SAAR)

Arrival

Time 2026-05-08 23:01
Airport Rosario Islas Malvinas International Airport (SAAR)
Time Latitude Longitude Altitude Speed Heading
2026-05-08 22:05 -32.91804 -60.78221 91 ft 0 kts 21°
2026-05-08 22:08 -32.91794 -60.78234 92 ft 5 kts 331°
2026-05-08 22:08 -32.91750 -60.78250 91 ft 9 kts 340°
2026-05-08 22:08 -32.91694 -60.78265 99 ft 0 kts 352°
2026-05-08 22:08 -32.91692 -60.78265 97 ft 0 kts 351°
2026-05-08 22:09 -32.91691 -60.78266 96 ft 2 kts 287°
2026-05-08 22:09 -32.91749 -60.78255 92 ft 14 kts 159°
2026-05-08 22:09 -32.91809 -60.78256 110 ft 0 kts 206°
2026-05-08 22:10 -32.91808 -60.78256 110 ft 0 kts 206°
2026-05-08 22:11 -32.91810 -60.78256 108 ft 0 kts 148°
2026-05-08 22:11 -32.91788 -60.78250 91 ft 10 kts
2026-05-08 22:11 -32.91699 -60.78279 97 ft 13 kts 21°
2026-05-08 22:12 -32.91601 -60.78234 93 ft 17 kts 18°
2026-05-08 22:12 -32.91475 -60.78179 91 ft 21 kts 19°
2026-05-08 22:12 -32.91360 -60.78225 92 ft 18 kts 323°
2026-05-08 22:12 -32.91264 -60.78307 91 ft 16 kts 320°
2026-05-08 22:13 -32.91176 -60.78394 91 ft 18 kts 320°
2026-05-08 22:13 -32.91068 -60.78486 92 ft 20 kts 332°
2026-05-08 22:13 -32.91032 -60.78505 92 ft 0 kts 330°
2026-05-08 22:14 -32.91033 -60.78505 92 ft 0 kts 330°
2026-05-08 22:14 -32.91007 -60.78519 93 ft 13 kts 330°
2026-05-08 22:14 -32.90848 -60.78576 93 ft 35 kts
2026-05-08 22:14 -32.90563 -60.78515 93 ft 41 kts 14°
2026-05-08 22:15 -32.90299 -60.78455 90 ft 36 kts 11°
2026-05-08 22:15 -32.90071 -60.78402 93 ft 31 kts
2026-05-08 22:15 -32.89869 -60.78354 93 ft 28 kts 11°
2026-05-08 22:15 -32.89690 -60.78310 92 ft 24 kts
2026-05-08 22:16 -32.89532 -60.78279 94 ft 22 kts 11°
2026-05-08 22:16 -32.89391 -60.78234 92 ft 20 kts 14°
2026-05-08 22:16 -32.89257 -60.78214 91 ft 19 kts
2026-05-08 22:16 -32.89186 -60.78206 94 ft 0 kts 182°
2026-05-08 22:19 -32.89301 -60.78230 92 ft 42 kts 194°
2026-05-08 22:19 -32.89713 -60.78339 207 ft 70 kts 197°
2026-05-08 22:19 -32.90193 -60.78471 480 ft 72 kts 200°
2026-05-08 22:19 -32.90711 -60.78373 763 ft 84 kts 161°
2026-05-08 22:20 -32.91193 -60.77835 1008 ft 103 kts 141°
2026-05-08 22:20 -32.91666 -60.77195 1364 ft 100 kts 143°
2026-05-08 22:20 -32.92122 -60.76553 1588 ft 101 kts 146°
2026-05-08 22:20 -32.92565 -60.75929 1884 ft 96 kts 143°
2026-05-08 22:21 -32.92979 -60.75296 2078 ft 94 kts 154°
2026-05-08 22:21 -32.93491 -60.74790 2241 ft 105 kts 139°
2026-05-08 22:21 -32.93833 -60.74027 2582 ft 103 kts 137°
2026-05-08 22:21 -32.94237 -60.73313 2888 ft 100 kts 142°
2026-05-08 22:22 -32.94650 -60.72661 3130 ft 97 kts 150°
2026-05-08 22:22 -32.95108 -60.72180 3381 ft 83 kts 168°
2026-05-08 22:22 -32.95627 -60.71883 3588 ft 81 kts 174°
2026-05-08 22:22 -32.96094 -60.71568 3804 ft 77 kts 178°
2026-05-08 22:23 -32.96616 -60.71347 3972 ft 76 kts 179°
2026-05-08 22:23 -32.97081 -60.71030 4144 ft 81 kts 172°
2026-05-08 22:23 -32.97544 -60.70561 4374 ft 87 kts 152°
2026-05-08 22:23 -32.97981 -60.70056 4491 ft 89 kts 161°
2026-05-08 22:24 -32.98435 -60.69614 4721 ft 79 kts 163°
2026-05-08 22:24 -32.98916 -60.69264 4785 ft 81 kts 172°
2026-05-08 22:24 -32.99376 -60.68926 5013 ft 76 kts 168°
2026-05-08 22:24 -32.99831 -60.68550 5123 ft 80 kts 166°
2026-05-08 22:25 -33.00279 -60.68181 5304 ft 78 kts 167°
2026-05-08 22:25 -33.00757 -60.67857 5445 ft 79 kts 170°
2026-05-08 22:25 -33.01229 -60.67544 5632 ft 78 kts 169°
2026-05-08 22:25 -33.01667 -60.67102 5529 ft 87 kts 136°
2026-05-08 22:26 -33.02146 -60.66612 5625 ft 90 kts 139°
2026-05-08 22:26 -33.02626 -60.66159 5741 ft 90 kts 155°
2026-05-08 22:26 -33.03222 -60.65995 5898 ft 88 kts 171°
2026-05-08 22:26 -33.03840 -60.65866 6019 ft 89 kts 168°
2026-05-08 22:27 -33.04441 -60.65704 6143 ft 91 kts 169°
2026-05-08 22:27 -33.05060 -60.65534 6309 ft 88 kts 164°
2026-05-08 22:27 -33.05619 -60.65234 6418 ft 90 kts 137°
2026-05-08 22:27 -33.05858 -60.64557 6536 ft 92 kts 91°
2026-05-08 22:28 -33.05596 -60.63882 6653 ft 92 kts 40°
2026-05-08 22:28 -33.04990 -60.63711 6761 ft 92 kts 343°
2026-05-08 22:28 -33.04498 -60.64166 6914 ft 87 kts 310°
2026-05-08 22:28 -33.04133 -60.64752 6988 ft 91 kts 303°
2026-05-08 22:29 -33.03810 -60.65388 7132 ft 87 kts 301°
2026-05-08 22:29 -33.03367 -60.65938 7182 ft 94 kts 319°
2026-05-08 22:29 -33.02847 -60.66442 7257 ft 99 kts 318°
2026-05-08 22:29 -33.02334 -60.66987 7354 ft 97 kts 317°
2026-05-08 22:30 -33.01811 -60.67511 7413 ft 100 kts 319°
2026-05-08 22:30 -33.01250 -60.68011 7530 ft 98 kts 323°
2026-05-08 22:30 -33.00705 -60.68501 7613 ft 100 kts 321°
2026-05-08 22:30 -33.00158 -60.69007 7707 ft 100 kts 325°
2026-05-08 22:31 -32.99558 -60.69429 7789 ft 100 kts 329°
2026-05-08 22:31 -32.98978 -60.69871 7879 ft 99 kts 321°
2026-05-08 22:31 -32.98437 -60.70389 7946 ft 100 kts 317°
2026-05-08 22:31 -32.97941 -60.70964 8016 ft 101 kts 319°
2026-05-08 22:32 -32.97351 -60.71464 8026 ft 107 kts 324°
2026-05-08 22:32 -32.96740 -60.72017 8042 ft 111 kts 321°
2026-05-08 22:32 -32.96140 -60.72582 8108 ft 111 kts 320°
2026-05-08 22:32 -32.95533 -60.73201 8033 ft 121 kts 317°
2026-05-08 22:33 -32.94899 -60.73872 8001 ft 121 kts 317°
2026-05-08 22:33 -32.94305 -60.74579 7993 ft 121 kts 316°
2026-05-08 22:33 -32.93648 -60.75210 7985 ft 122 kts 322°
2026-05-08 22:33 -32.92974 -60.75798 7963 ft 122 kts 323°
2026-05-08 22:34 -32.92281 -60.76400 7949 ft 121 kts 321°
2026-05-08 22:34 -32.91616 -60.77020 7948 ft 121 kts 321°
2026-05-08 22:34 -32.90948 -60.77628 7952 ft 121 kts 321°
2026-05-08 22:34 -32.90246 -60.78181 7943 ft 122 kts 334°
2026-05-08 22:35 -32.89450 -60.78504 7982 ft 120 kts 340°
2026-05-08 22:35 -32.88656 -60.78846 7946 ft 123 kts 339°
2026-05-08 22:35 -32.87848 -60.79169 7969 ft 121 kts 341°
2026-05-08 22:35 -32.87038 -60.79441 7964 ft 123 kts 354°
2026-05-08 22:36 -32.86274 -60.79137 8095 ft 113 kts 36°
2026-05-08 22:36 -32.85782 -60.78366 8009 ft 126 kts 68°
2026-05-08 22:36 -32.85724 -60.77358 8040 ft 122 kts 102°
2026-05-08 22:36 -32.86299 -60.76711 8082 ft 117 kts 169°
2026-05-08 22:37 -32.87066 -60.76953 8085 ft 118 kts 208°
2026-05-08 22:37 -32.87778 -60.77421 8125 ft 115 kts 210°
2026-05-08 22:37 -32.88551 -60.77642 8139 ft 118 kts 190°
2026-05-08 22:37 -32.89389 -60.77806 8111 ft 120 kts 191°
2026-05-08 22:38 -32.90190 -60.77988 8163 ft 119 kts 192°
2026-05-08 22:38 -32.90911 -60.78462 8113 ft 121 kts 233°
2026-05-08 22:38 -32.91163 -60.79392 8107 ft 122 kts 270°
2026-05-08 22:38 -32.90801 -60.80313 8017 ft 127 kts 315°
2026-05-08 22:39 -32.90041 -60.80747 8084 ft 121 kts 352°
2026-05-08 22:39 -32.89190 -60.80592 8037 ft 124 kts 12°
2026-05-08 22:39 -32.88334 -60.80383 7942 ft 130 kts 10°
2026-05-08 22:39 -32.87438 -60.80151 7863 ft 130 kts 11°
2026-05-08 22:40 -32.86561 -60.79955 7858 ft 128 kts 10°
2026-05-08 22:40 -32.86005 -60.79674 7847 ft 127 kts 37°
2026-05-08 22:40 -32.85572 -60.78821 7885 ft 124 kts 79°
2026-05-08 22:40 -32.85735 -60.77835 7863 ft 126 kts 122°
2026-05-08 22:41 -32.86434 -60.77175 7668 ft 136 kts 160°
2026-05-08 22:41 -32.87397 -60.77255 7444 ft 138 kts 197°
2026-05-08 22:41 -32.88233 -60.77548 7636 ft 119 kts 198°
2026-05-08 22:41 -32.89039 -60.77806 7658 ft 117 kts 187°
2026-05-08 22:42 -32.89791 -60.77939 7832 ft 107 kts 190°
2026-05-08 22:42 -32.90555 -60.78141 7797 ft 116 kts 205°
2026-05-08 22:42 -32.91102 -60.78829 7825 ft 116 kts 247°
2026-05-08 22:42 -32.91105 -60.79763 7861 ft 116 kts 291°
2026-05-08 22:43 -32.90569 -60.80463 7913 ft 115 kts 329°
2026-05-08 22:43 -32.89779 -60.80550 7890 ft 122 kts 14°
2026-05-08 22:43 -32.88968 -60.80358 7966 ft 118 kts
2026-05-08 22:43 -32.88161 -60.80190 7991 ft 118 kts
2026-05-08 22:44 -32.87343 -60.80000 7977 ft 121 kts 10°
2026-05-08 22:44 -32.86515 -60.79824 8017 ft 119 kts 10°
2026-05-08 22:44 -32.85829 -60.79271 7995 ft 122 kts 51°
2026-05-08 22:44 -32.85595 -60.78310 8010 ft 122 kts 93°
2026-05-08 22:45 -32.85977 -60.77475 8087 ft 114 kts 151°
2026-05-08 22:45 -32.86795 -60.77395 7973 ft 124 kts 182°
2026-05-08 22:45 -32.87668 -60.77443 7912 ft 127 kts 188°
2026-05-08 22:45 -32.88532 -60.77666 7898 ft 125 kts 194°
2026-05-08 22:46 -32.89369 -60.77890 7889 ft 123 kts 194°
2026-05-08 22:46 -32.90222 -60.78073 7861 ft 125 kts 189°
2026-05-08 22:46 -32.91081 -60.78202 7862 ft 124 kts 189°
2026-05-08 22:46 -32.91879 -60.78588 7815 ft 127 kts 215°
2026-05-08 22:47 -32.92497 -60.79315 7801 ft 124 kts 232°
2026-05-08 22:47 -32.92987 -60.80150 7793 ft 123 kts 237°
2026-05-08 22:47 -32.93417 -60.81050 7770 ft 124 kts 249°
2026-05-08 22:47 -32.93654 -60.82024 7767 ft 123 kts 255°
2026-05-08 22:48 -32.93883 -60.82998 7771 ft 122 kts 252°
2026-05-08 22:48 -32.94380 -60.83801 7774 ft 122 kts 229°
2026-05-08 22:48 -32.94941 -60.84559 7777 ft 121 kts 229°
2026-05-08 22:48 -32.95484 -60.85330 7756 ft 122 kts 231°
2026-05-08 22:49 -32.96014 -60.86090 7829 ft 117 kts 230°
2026-05-08 22:49 -32.97068 -60.87612 7894 ft 118 kts 232°
2026-05-08 22:49 -32.97585 -60.88364 7925 ft 118 kts 231°
2026-05-08 22:50 -32.98016 -60.89199 7910 ft 120 kts 255°
2026-05-08 22:50 -32.98032 -60.90195 7890 ft 120 kts 274°
2026-05-08 22:50 -32.97994 -60.91174 7933 ft 117 kts 271°
2026-05-08 22:50 -32.97971 -60.92142 7929 ft 118 kts 273°
2026-05-08 22:51 -32.97925 -60.93121 7931 ft 116 kts 273°
2026-05-08 22:51 -32.97879 -60.94117 7746 ft 122 kts 270°
2026-05-08 22:51 -32.98259 -60.94981 7595 ft 124 kts 221°
2026-05-08 22:51 -32.99095 -60.95277 7384 ft 130 kts 175°
2026-05-08 22:52 -32.99856 -60.94806 7346 ft 124 kts 133°
2026-05-08 22:52 -33.00143 -60.93841 7168 ft 129 kts 91°
2026-05-08 22:52 -33.00125 -60.92818 7180 ft 119 kts 78°
2026-05-08 22:52 -32.99757 -60.91910 7019 ft 126 kts 51°
2026-05-08 22:53 -32.99194 -60.91149 6986 ft 119 kts 48°
2026-05-08 22:53 -32.98643 -60.90412 6716 ft 119 kts 48°
2026-05-08 22:53 -32.98069 -60.89617 6120 ft 130 kts 49°
2026-05-08 22:53 -32.97533 -60.88795 5734 ft 123 kts 54°
2026-05-08 22:54 -32.97043 -60.87954 5279 ft 124 kts 55°
2026-05-08 22:54 -32.96545 -60.87116 4854 ft 122 kts 53°
2026-05-08 22:54 -32.96080 -60.86346 4688 ft 105 kts 54°
2026-05-08 22:54 -32.95699 -60.85668 4508 ft 98 kts 56°
2026-05-08 22:55 -32.95353 -60.85036 4227 ft 83 kts 56°
2026-05-08 22:55 -32.95024 -60.84438 3757 ft 88 kts 56°
2026-05-08 22:55 -32.94714 -60.83831 3361 ft 85 kts 59°
2026-05-08 22:55 -32.94312 -60.83302 2920 ft 86 kts 43°
2026-05-08 22:56 -32.93896 -60.82790 2578 ft 85 kts 46°
2026-05-08 22:56 -32.93511 -60.82268 2200 ft 84 kts 49°
2026-05-08 22:56 -32.93145 -60.81726 1841 ft 84 kts 55°
2026-05-08 22:56 -32.92816 -60.81027 1475 ft 108 kts 61°
2026-05-08 22:57 -32.92499 -60.80258 1246 ft 99 kts 64°
2026-05-08 22:57 -32.92219 -60.79532 1013 ft 96 kts 65°
2026-05-08 22:57 -32.91951 -60.78805 923 ft 90 kts 67°
2026-05-08 22:57 -32.91718 -60.78116 829 ft 89 kts 68°
2026-05-08 22:58 -32.91422 -60.77503 820 ft 83 kts 37°
2026-05-08 22:58 -32.90882 -60.77307 769 ft 84 kts 10°
2026-05-08 22:58 -32.90294 -60.77145 737 ft 89 kts 12°
2026-05-08 22:58 -32.89698 -60.76970 803 ft 90 kts 13°
2026-05-08 22:59 -32.89086 -60.76800 896 ft 90 kts 11°
2026-05-08 22:59 -32.88531 -60.76643 917 ft 76 kts 13°
2026-05-08 22:59 -32.88032 -60.76612 831 ft 70 kts 337°
2026-05-08 22:59 -32.87739 -60.77060 628 ft 70 kts 284°
2026-05-08 23:00 -32.87667 -60.77621 506 ft 69 kts 279°
2026-05-08 23:00 -32.87883 -60.78047 321 ft 72 kts 190°
2026-05-08 23:00 -32.88382 -60.78077 242 ft 74 kts 186°
2026-05-08 23:00 -32.88908 -60.78147 202 ft 77 kts 192°
2026-05-08 23:01 -32.89429 -60.78263 125 ft 74 kts 191°
2026-05-08 23:01 -32.89874 -60.78365 93 ft 56 kts 192°
2026-05-08 23:01 -32.90214 -60.78439 91 ft 45 kts 189°
2026-05-08 23:01 -32.90498 -60.78502 92 ft 39 kts 192°
2026-05-08 23:02 -32.90748 -60.78559 92 ft 34 kts 191°
2026-05-08 23:02 -32.90901 -60.78564 93 ft 31 kts 166°
2026-05-08 23:02 -32.91094 -60.78468 93 ft 29 kts 149°
2026-05-08 23:02 -32.91250 -60.78323 91 ft 25 kts 141°
2026-05-08 23:03 -32.91383 -60.78197 92 ft 22 kts 142°
2026-05-08 23:03 -32.91509 -60.78194 91 ft 18 kts 201°
2026-05-08 23:03 -32.91620 -60.78243 93 ft 16 kts 200°
2026-05-08 23:03 -32.91716 -60.78287 91 ft 14 kts 195°
2026-05-08 23:04 -32.91780 -60.78247 91 ft 10 kts 184°
2026-05-08 23:04 -32.91835 -60.78246 91 ft 7 kts 126°
2026-05-08 23:04 -32.91833 -60.78207 91 ft 5 kts 38°
2026-05-08 23:04 -32.91822 -60.78201 92 ft 1 kts 22°
2026-05-08 23:05 -32.91819 -60.78200 91 ft 0 kts 20°